El Dorado, AR

5:26 PM CDT on July 29, 2016 (GMT -0500)
South Arkansas Regional At Goodwin

Weather History for KELD - April, 2013

Change the Weather History Date:

Monday, April 15, 2013

  Actual Average Record
Temperature  
Mean Temperature 74 °F 63 °F  
Max Temperature 86 °F 76 °F 92 °F (1925)
Min Temperature 61 °F 51 °F 31 °F (1980)
Degree Days  
Heating Degree Days 0 4  
Month to date heating degree days 102 78  
Since 1 July heating degree days 2575 2614  
Cooling Degree Days 9 2  
Month to date cooling degree days 27 28  
Year to date cooling degree days 39 56  
Growing Degree Days 24 (Base 50)    
Moisture  
Dew Point 63 °F    
Average Humidity 73    
Maximum Humidity 100    
Minimum Humidity 45    
Precipitation  
Precipitation 0.00 in 0.13 in 1.50 in (2012)
Month to date precipitation 2.91 2.00  
Year to date precipitation 12.63 15.84  
Snow  
Snow 0.00 in - - ()
Month to date snowfall 0.0  
Since 1 July snowfall 0.1  
Snow Depth 0.00 in    
Sea Level Pressure  
Sea Level Pressure 29.82 in    
Wind  
Wind Speed 8 mph (SSE)    
Max Wind Speed 14 mph    
Max Gust Speed 22 mph    
Visibility 9 miles    
Events      
T = Trace of Precipitation, MM = Missing Value Source: NWS Daily Summary

Daily Weather History Graph

Daily Weather History Graph

Search for Another Location

Airport or City:

Trip Planner

Search our weather history database for the weather conditions in past years. The results will help you decide how hot, cold, wet, or windy it might be!

Date:

Astronomy

Apr. 15, 2013 Rise Set
Actual Time 6:40 AM CDT 7:42 PM CDT
Civil Twilight 6:15 AM CDT 8:07 PM CDT
Nautical Twilight 5:45 AM CDT 8:37 PM CDT
Astronomical Twilight 5:14 AM CDT 9:09 PM CDT
Moon 10:16 AM CDT (4/15) No Moon Set
Length of Visible Light 13h 52m
Length of Day
13h 01m
Waxing Crescent, 25% of the Moon is Illuminated
Apr 15
Waxing Crescent
Apr 18
First Quarter
Apr 25
Full
May 2
Last Quarter
May 9
New

Hourly Weather History & Observations

Time (CDT) Temp. Heat Index Dew Point Humidity Pressure Visibility Wind Dir Wind Speed Gust Speed Precip Events Conditions
12:53 AM 62.1 °F - 60.1 °F 93% 29.75 in 10.0 mi SSE 3.5 mph - N/A   Clear
1:53 AM 61.0 °F - 60.1 °F 97% 29.76 in 10.0 mi SSE 3.5 mph - N/A   Clear
2:53 AM 61.0 °F - 60.1 °F 97% 29.76 in 10.0 mi SSE 4.6 mph - N/A   Clear
3:53 AM 61.0 °F - 61.0 °F 100% 29.76 in 10.0 mi SSE 6.9 mph - N/A   Clear
4:33 AM 62.6 °F - 60.8 °F 94% 29.78 in 9.0 mi SSE 5.8 mph - N/A   Scattered Clouds
4:42 AM 62.6 °F - 62.6 °F 100% 29.78 in 9.0 mi South 9.2 mph - N/A   Mostly Cloudy
4:53 AM 62.1 °F - 62.1 °F 100% 29.77 in 9.0 mi South 8.1 mph - N/A   Mostly Cloudy
5:09 AM 62.6 °F - 60.8 °F 94% 29.78 in 9.0 mi SSE 5.8 mph - N/A   Scattered Clouds
5:53 AM 61.0 °F - 61.0 °F 100% 29.78 in 8.0 mi SE 5.8 mph - N/A   Scattered Clouds
6:01 AM 62.6 °F - 60.8 °F 94% 29.79 in 7.0 mi SE 5.8 mph - N/A   Mostly Cloudy
6:08 AM 62.6 °F - 60.8 °F 94% 29.79 in 7.0 mi SSE 9.2 mph - N/A   Mostly Cloudy
6:53 AM 61.0 °F - 61.0 °F 100% 29.80 in 6.0 mi SSE 8.1 mph - N/A   Mostly Cloudy
7:53 AM 63.0 °F - 62.1 °F 97% 29.82 in 6.0 mi SSE 9.2 mph - N/A   Overcast
8:53 AM 64.0 °F - 62.1 °F 93% 29.83 in 7.0 mi South 13.8 mph 20.7 mph N/A   Overcast
9:53 AM 64.9 °F - 63.0 °F 93% 29.86 in 8.0 mi South 9.2 mph - N/A   Overcast
10:46 AM 66.2 °F - 62.6 °F 88% 29.88 in 8.0 mi South 9.2 mph 17.3 mph N/A   Overcast
10:53 AM 66.9 °F - 64.0 °F 90% 29.87 in 8.0 mi South 8.1 mph - N/A   Overcast
11:51 AM 69.8 °F - 64.4 °F 83% 29.88 in 8.0 mi SSE 8.1 mph - N/A   Overcast
11:53 AM 70.0 °F - 64.0 °F 81% 29.88 in 8.0 mi SSE 8.1 mph - N/A   Overcast
12:39 PM 73.4 °F - 64.4 °F 73% 29.88 in 10.0 mi SSW 6.9 mph - N/A   Scattered Clouds
12:53 PM 73.9 °F - 64.9 °F 73% 29.87 in 10.0 mi SW 6.9 mph - N/A   Scattered Clouds
1:18 PM 77.0 °F - 64.4 °F 65% 29.86 in 10.0 mi SSE 8.1 mph - N/A   Mostly Cloudy
1:28 PM 77.0 °F - 66.2 °F 69% 29.86 in 10.0 mi SSE 8.1 mph - N/A   Scattered Clouds
1:53 PM 79.0 °F - 66.0 °F 64% 29.84 in 10.0 mi Variable 3.5 mph - N/A   Clear
2:53 PM 82.0 °F 83.8 °F 64.9 °F 56% 29.81 in 10.0 mi SE 6.9 mph - N/A   Clear
3:53 PM 84.9 °F 86.1 °F 64.0 °F 49% 29.79 in 10.0 mi SE 8.1 mph - N/A   Clear
4:53 PM 86.0 °F 86.8 °F 63.0 °F 46% 29.78 in 10.0 mi SE 9.2 mph - N/A   Clear
5:53 PM 86.0 °F 86.8 °F 63.0 °F 46% 29.79 in 10.0 mi SE 12.7 mph - N/A   Clear
6:53 PM 82.0 °F 82.7 °F 61.0 °F 49% 29.79 in 10.0 mi SSE 10.4 mph - N/A   Clear
7:53 PM 78.1 °F - 63.0 °F 60% 29.81 in 10.0 mi SSE 5.8 mph - N/A   Clear
8:53 PM 73.9 °F - 64.0 °F 71% 29.83 in 10.0 mi SE 3.5 mph - N/A   Clear
9:53 PM 75.0 °F - 64.9 °F 71% 29.85 in 10.0 mi SE 6.9 mph - N/A   Clear
10:53 PM 73.9 °F - 66.0 °F 76% 29.86 in 10.0 mi SSE 11.5 mph - N/A   Clear
11:53 PM 73.0 °F - 66.9 °F 81% 29.87 in 10.0 mi South 8.1 mph - N/A   Clear